sat.trackr.live / text

‹ back to catalog

STARLINK-3678

NORAD 52121 · 2022-029AK

PAYLOAD ACTIVE UNKNOWN

§ Identity

Operator
Country
US
Launch date
2022-03-19
Launch site
AFETR
Launch vehicle
Mass (kg)
RCS (m²)

Purposes: comms

External: N2YO · Heavens-Above · Gunter

§ Orbital elements

Epoch: 2026-05-25T03:24:22.627584Z

Period
95.44 min
Inclination
53.2126°
Eccentricity
0.0001593
Mean motion
15.08842328 rev/d
Perigee alt
538.6 km
Apogee alt
540.8 km
Semi-major
6,917.9 km
B*
-4.0080e-5
RAAN
85.9110°
Arg perigee
51.3729°
Mean anomaly
308.7405°
Rev number
23,246

§ Raw data

STARLINK-36781 52121U 22029AK  26145.14192856 -.00000926  00000+0 -40080-4 0  99942 52121  53.2126  85.9110 0001593  51.3729 308.7405 15.08842328232466

JSON: /api/v1/satellites/52121 · /tle

For live sub-satellite position, see the globe view (requires WebGL).

§ Visibility from observer

Set your observer location to see the next 7 days of passes ≥ 10°. The values pass through the URL so the page stays shareable.

No JS? Fill the form by hand. The geolocation button needs JavaScript.